Time,TemperatureF,DewpointF,PressureIn,WindDirection,WindDirectionDegrees,WindSpeedMPH,WindSpeedGustMPH,Humidity,HourlyPrecipIn,Conditions,Clouds,dailyrainin,SoftwareType,DateUTC
2013-08-01 00:04:00,79.4,55.9,28.94,North,360,0.0,0.0,45,0.00,,,0.00,WSDL version 420,2013-08-01 05:04:00,
2013-08-01 00:09:00,79.3,55.6,28.94,North,360,0.0,0.0,44,0.00,,,0.00,WSDL version 420,2013-08-01 05:09:00,
2013-08-01 00:14:00,79.2,55.4,28.97,North,360,0.0,0.0,44,0.00,,,0.00,WSDL version 420,2013-08-01 05:14:00,
2013-08-01 00:19:00,79.0,55.2,28.97,North,360,0.0,0.0,44,0.00,,,0.00,WSDL version 420,2013-08-01 05:19:00,
2013-08-01 00:24:00,78.8,55.7,28.97,North,360,0.0,0.0,45,0.00,,,0.00,WSDL version 420,2013-08-01 05:24:00,
2013-08-01 00:29:00,78.6,55.5,28.97,North,360,0.0,0.0,45,0.00,,,0.00,WSDL version 420,2013-08-01 05:29:00,
2013-08-01 00:34:00,78.9,55.3,28.97,North,360,0.0,0.0,44,0.00,,,0.00,WSDL version 420,2013-08-01 05:34:00,
2013-08-01 00:39:00,78.8,55.3,28.97,North,360,0.0,0.0,45,0.00,,,0.00,WSDL version 420,2013-08-01 05:39:00,
2013-08-01 00:44:00,79.0,55.5,28.97,North,360,0.0,0.0,44,0.00,,,0.00,WSDL version 420,2013-08-01 05:44:00,
2013-08-01 00:49:00,79.8,56.0,28.97,NNE,17,0.0,0.0,44,0.00,,,0.00,WSDL version 420,2013-08-01 05:49:00,
2013-08-01 00:54:00,80.0,56.2,28.97,South,170,0.6,1.6,44,0.00,,,0.00,WSDL version 420,2013-08-01 05:54:00,
2013-08-01 00:59:00,80.3,56.4,28.97,SSW,208,1.1,2.0,44,0.00,,,0.00,WSDL version 420,2013-08-01 05:59:00,
2013-08-01 01:04:00,80.6,56.1,28.97,SSE,158,1.0,2.0,43,0.00,,,0.00,WSDL version 420,2013-08-01 06:04:00,
2013-08-01 01:09:00,80.7,56.3,28.97,South,178,0.4,2.0,43,0.00,,,0.00,WSDL version 420,2013-08-01 06:09:00,
2013-08-01 01:14:00,80.8,56.8,28.94,South,186,0.4,2.2,44,0.00,,,0.00,WSDL version 420,2013-08-01 06:14:00,
2013-08-01 01:19:00,81.0,57.0,28.94,South,188,0.0,2.2,44,0.00,,,0.00,WSDL version 420,2013-08-01 06:19:00,
2013-08-01 01:24:00,81.0,57.0,28.94,South,183,0.0,1.1,44,0.00,,,0.00,WSDL version 420,2013-08-01 06:24:00,
2013-08-01 01:29:00,81.0,57.5,28.94,SW,222,0.0,1.3,45,0.00,,,0.00,WSDL version 420,2013-08-01 06:29:00,
2013-08-01 01:34:00,81.0,57.6,28.94,South,180,0.0,1.3,45,0.00,,,0.00,WSDL version 420,2013-08-01 06:34:00,
2013-08-01 01:39:00,80.9,57.7,28.94,WSW,253,0.0,1.1,46,0.00,,,0.00,WSDL version 420,2013-08-01 06:39:00,
2013-08-01 01:44:00,80.8,57.8,28.94,SW,223,0.4,2.0,46,0.00,,,0.00,WSDL version 420,2013-08-01 06:44:00,
2013-08-01 01:49:00,80.8,58.1,28.94,SSW,208,0.5,2.0,47,0.00,,,0.00,WSDL version 420,2013-08-01 06:49:00,
2013-08-01 01:54:00,80.7,58.1,28.94,SW,228,0.0,1.6,46,0.00,,,0.00,WSDL version 420,2013-08-01 06:54:00,
2013-08-01 01:59:00,80.6,58.0,28.94,WSW,248,0.0,1.1,47,0.00,,,0.00,WSDL version 420,2013-08-01 06:59:00,
2013-08-01 02:04:00,80.4,58.4,28.94,WSW,248,0.0,0.9,48,0.00,,,0.00,WSDL version 420,2013-08-01 07:04:00,
2013-08-01 02:09:00,80.4,58.7,28.94,WSW,248,0.0,0.9,48,0.00,,,0.00,WSDL version 420,2013-08-01 07:09:00,
2013-08-01 02:14:00,80.2,58.4,28.94,West,264,0.0,0.9,47,0.00,,,0.00,WSDL version 420,2013-08-01 07:14:00,
2013-08-01 02:19:00,80.1,58.3,28.94,SW,220,0.0,1.6,47,0.00,,,0.00,WSDL version 420,2013-08-01 07:19:00,
2013-08-01 02:24:00,80.2,58.9,28.94,SW,235,0.5,1.6,48,0.00,,,0.00,WSDL version 420,2013-08-01 07:24:00,
2013-08-01 02:29:00,80.2,58.9,28.94,SW,220,0.5,1.3,49,0.00,,,0.00,WSDL version 420,2013-08-01 07:29:00,
2013-08-01 02:34:00,80.2,59.0,28.94,SSW,197,0.0,1.3,49,0.00,,,0.00,WSDL version 420,2013-08-01 07:34:00,
2013-08-01 02:39:00,80.1,58.7,28.94,SSW,208,0.1,1.3,48,0.00,,,0.00,WSDL version 420,2013-08-01 07:39:00,
2013-08-01 02:44:00,79.9,58.9,28.94,SSE,158,0.0,1.3,49,0.00,,,0.00,WSDL version 420,2013-08-01 07:44:00,
2013-08-01 02:49:00,79.8,58.7,28.94,SSE,158,0.0,1.1,48,0.00,,,0.00,WSDL version 420,2013-08-01 07:49:00,
2013-08-01 02:54:00,79.7,58.8,28.94,West,263,0.0,1.1,49,0.00,,,0.00,WSDL version 420,2013-08-01 07:54:00,
2013-08-01 02:59:00,79.6,59.1,28.94,SW,228,0.0,1.3,50,0.00,,,0.00,WSDL version 420,2013-08-01 07:59:00,
2013-08-01 03:06:00,79.3,59.2,28.94,South,180,0.5,1.3,50,0.00,,,0.00,WSDL version 420,2013-08-01 08:06:00,
2013-08-01 03:11:00,79.2,59.1,28.94,SW,219,0.0,1.6,49,0.00,,,0.00,WSDL version 420,2013-08-01 08:11:00,
2013-08-01 03:16:00,79.2,59.0,28.97,South,180,0.0,1.6,51,0.00,,,0.00,WSDL version 420,2013-08-01 08:16:00,
2013-08-01 03:23:00,79.0,59.5,28.97,South,188,0.1,2.0,51,0.00,,,0.00,WSDL version 420,2013-08-01 08:23:00,
2013-08-01 03:28:00,79.0,59.3,28.97,SSW,197,0.4,1.3,51,0.00,,,0.00,WSDL version 420,2013-08-01 08:28:00,
2013-08-01 03:35:00,79.0,59.1,28.94,South,186,0.2,1.3,50,0.00,,,0.00,WSDL version 420,2013-08-01 08:35:00,
2013-08-01 03:40:00,78.9,58.9,28.94,SSW,203,0.2,1.3,51,0.00,,,0.00,WSDL version 420,2013-08-01 08:40:00,
2013-08-01 03:45:00,78.8,59.2,28.97,SSW,203,0.0,1.3,51,0.00,,,0.00,WSDL version 420,2013-08-01 08:45:00,
2013-08-01 03:53:00,78.5,59.5,28.97,SSW,203,0.0,0.0,53,0.00,,,0.00,WSDL version 420,2013-08-01 08:53:00,
2013-08-01 03:58:00,78.3,59.7,28.97,SSW,203,0.0,0.0,52,0.00,,,0.00,WSDL version 420,2013-08-01 08:58:00,
2013-08-01 04:05:00,78.0,59.5,28.97,SSW,203,0.0,0.0,53,0.00,,,0.00,WSDL version 420,2013-08-01 09:05:00,
2013-08-01 04:12:00,77.8,59.6,28.97,SSW,203,0.0,0.0,54,0.00,,,0.00,WSDL version 420,2013-08-01 09:12:00,
2013-08-01 04:17:00,77.5,59.5,28.97,SSW,203,0.0,0.0,54,0.00,,,0.00,WSDL version 420,2013-08-01 09:17:00,
2013-08-01 04:24:00,77.2,59.4,28.97,SSW,203,0.0,0.0,55,0.00,,,0.00,WSDL version 420,2013-08-01 09:24:00,
2013-08-01 04:29:00,77.1,59.7,28.94,SSW,203,0.0,0.0,55,0.00,,,0.00,WSDL version 420,2013-08-01 09:29:00,
2013-08-01 04:34:00,77.0,59.6,28.94,SSW,203,0.0,0.0,55,0.00,,,0.00,WSDL version 420,2013-08-01 09:34:00,
2013-08-01 04:39:00,76.9,59.6,28.94,SSW,203,0.0,0.0,56,0.00,,,0.00,WSDL version 420,2013-08-01 09:39:00,
2013-08-01 04:44:00,76.8,59.6,28.94,SSW,203,0.0,0.0,55,0.00,,,0.00,WSDL version 420,2013-08-01 09:44:00,
2013-08-01 04:49:00,76.6,59.5,28.94,SSW,203,0.0,0.0,56,0.00,,,0.00,WSDL version 420,2013-08-01 09:49:00,
2013-08-01 04:58:00,76.2,59.9,28.94,SSW,203,0.0,0.0,57,0.00,,,0.00,WSDL version 420,2013-08-01 09:58:00,
2013-08-01 05:03:00,75.9,59.2,28.94,SSW,203,0.0,0.0,55,0.00,,,0.00,WSDL version 420,2013-08-01 10:03:00,
2013-08-01 05:08:00,75.9,59.2,28.94,SSW,203,0.0,0.0,57,0.00,,,0.00,WSDL version 420,2013-08-01 10:08:00,
2013-08-01 05:15:00,75.9,59.8,28.97,SSW,203,0.0,0.0,58,0.00,,,0.00,WSDL version 420,2013-08-01 10:15:00,
2013-08-01 05:20:00,75.6,59.5,28.97,SSW,203,0.0,0.0,56,0.00,,,0.00,WSDL version 420,2013-08-01 10:20:00,
2013-08-01 05:25:00,75.5,58.9,28.97,SSW,203,0.0,0.0,56,0.00,,,0.00,WSDL version 420,2013-08-01 10:25:00,
2013-08-01 05:30:00,75.3,59.0,28.97,SSW,203,0.0,0.0,57,0.00,,,0.00,WSDL version 420,2013-08-01 10:30:00,
2013-08-01 05:35:00,75.2,59.0,28.97,SSW,203,0.0,0.0,58,0.00,,,0.00,WSDL version 420,2013-08-01 10:35:00,
2013-08-01 05:40:00,75.2,59.5,28.97,SSW,203,0.0,0.0,58,0.00,,,0.00,WSDL version 420,2013-08-01 10:40:00,
2013-08-01 05:48:00,75.4,59.7,28.97,SSW,203,0.0,0.0,59,0.00,,,0.00,WSDL version 420,2013-08-01 10:48:00,
2013-08-01 05:55:00,75.2,59.7,28.97,SSW,203,0.0,0.0,58,0.00,,,0.00,WSDL version 420,2013-08-01 10:55:00,
2013-08-01 06:02:00,75.3,59.9,28.97,SSW,203,0.0,0.0,59,0.00,,,0.00,WSDL version 420,2013-08-01 11:02:00,
2013-08-01 06:07:00,75.2,60.2,28.97,SSW,203,0.0,0.0,60,0.00,,,0.00,WSDL version 420,2013-08-01 11:07:00,
2013-08-01 06:17:00,75.0,60.2,28.97,SSW,203,0.0,0.0,60,0.00,,,0.00,WSDL version 420,2013-08-01 11:17:00,
2013-08-01 06:28:00,75.0,59.6,28.97,SSW,203,0.0,0.0,58,0.00,,,0.00,WSDL version 420,2013-08-01 11:28:00,
2013-08-01 06:33:00,75.0,60.1,28.97,SSW,203,0.0,0.0,60,0.00,,,0.00,WSDL version 420,2013-08-01 11:33:00,
2013-08-01 06:38:00,75.0,60.0,28.97,SSW,203,0.0,0.0,60,0.00,,,0.00,WSDL version 420,2013-08-01 11:38:00,
2013-08-01 06:43:00,75.0,59.7,28.97,SSW,203,0.0,0.0,59,0.00,,,0.00,WSDL version 420,2013-08-01 11:43:00,
2013-08-01 06:48:00,75.0,59.9,28.97,SSW,203,0.0,0.0,60,0.00,,,0.00,WSDL version 420,2013-08-01 11:48:00,
2013-08-01 06:53:00,74.8,60.0,28.97,SSW,203,0.0,0.0,60,0.00,,,0.00,WSDL version 420,2013-08-01 11:53:00,
2013-08-01 06:58:00,74.4,59.8,28.97,SSW,203,0.0,0.0,61,0.00,,,0.00,WSDL version 420,2013-08-01 11:58:00,
2013-08-01 07:03:00,74.3,59.7,28.97,SSW,203,0.0,0.0,60,0.00,,,0.00,WSDL version 420,2013-08-01 12:03:00,
2013-08-01 07:15:00,74.7,60.4,29.00,SSW,203,0.0,0.0,61,0.00,,,0.00,WSDL version 420,2013-08-01 12:15:00,
2013-08-01 07:22:00,74.8,60.5,29.00,SSW,203,0.0,0.0,61,0.00,,,0.00,WSDL version 420,2013-08-01 12:22:00,
2013-08-01 07:27:00,75.0,60.6,29.00,SSW,203,0.0,0.0,61,0.00,,,0.00,WSDL version 420,2013-08-01 12:27:00,
2013-08-01 07:34:00,75.2,60.4,29.00,SSW,203,0.0,0.0,60,0.00,,,0.00,WSDL version 420,2013-08-01 12:34:00,
2013-08-01 07:39:00,75.3,60.9,29.00,SSW,203,0.0,0.0,61,0.00,,,0.00,WSDL version 420,2013-08-01 12:39:00,
2013-08-01 07:44:00,75.4,61.3,28.97,SSW,203,0.0,0.0,62,0.00,,,0.00,WSDL version 420,2013-08-01 12:44:00,
2013-08-01 07:49:00,75.9,61.7,28.97,SSW,203,0.0,0.0,61,0.00,,,0.00,WSDL version 420,2013-08-01 12:49:00,
2013-08-01 07:54:00,76.5,61.4,28.97,WSW,248,0.0,0.0,59,0.00,,,0.00,WSDL version 420,2013-08-01 12:54:00,
2013-08-01 07:59:00,76.9,61.3,28.97,WSW,248,0.0,0.0,58,0.00,,,0.00,WSDL version 420,2013-08-01 12:59:00,
2013-08-01 08:04:00,77.4,61.4,28.97,WSW,248,0.0,0.0,58,0.00,,,0.00,WSDL version 420,2013-08-01 13:04:00,
2013-08-01 08:11:00,78.1,62.0,28.97,WNW,293,0.0,0.9,57,0.00,,,0.00,WSDL version 420,2013-08-01 13:11:00,
2013-08-01 08:18:00,79.0,62.5,29.00,WNW,293,0.0,0.9,57,0.00,,,0.00,WSDL version 420,2013-08-01 13:18:00,
2013-08-01 08:23:00,79.6,62.8,29.00,SW,214,0.0,1.1,56,0.00,,,0.00,WSDL version 420,2013-08-01 13:23:00,
2013-08-01 08:29:00,80.4,63.0,29.00,SSW,210,0.8,2.0,55,0.00,,,0.00,WSDL version 420,2013-08-01 13:29:00,
2013-08-01 08:34:00,81.1,63.2,29.00,SW,233,0.1,2.5,54,0.00,,,0.00,WSDL version 420,2013-08-01 13:34:00,
2013-08-01 08:39:00,81.8,63.5,29.00,South,190,0.4,2.5,53,0.00,,,0.00,WSDL version 420,2013-08-01 13:39:00,
2013-08-01 08:44:00,82.4,63.3,29.00,SSW,197,0.1,1.6,52,0.00,,,0.00,WSDL version 420,2013-08-01 13:44:00,
2013-08-01 08:51:00,83.4,63.7,29.00,SSW,210,0.7,2.2,51,0.00,,,0.00,WSDL version 420,2013-08-01 13:51:00,
2013-08-01 08:58:00,84.4,63.5,29.00,SW,228,0.7,2.2,49,0.00,,,0.00,WSDL version 420,2013-08-01 13:58:00,
2013-08-01 09:11:00,85.7,62.8,29.00,SW,236,1.1,2.9,46,0.00,,,0.00,WSDL version 420,2013-08-01 14:11:00,
2013-08-01 09:25:00,87.4,62.9,29.00,WSW,245,1.2,3.6,43,0.00,,,0.00,WSDL version 420,2013-08-01 14:25:00,
2013-08-01 09:30:00,87.7,61.8,29.00,WSW,250,2.1,3.6,41,0.00,,,0.00,WSDL version 420,2013-08-01 14:30:00,
2013-08-01 09:42:00,88.6,61.3,29.00,SW,218,1.2,2.9,41,0.00,,,0.00,WSDL version 420,2013-08-01 14:42:00,
2013-08-01 09:47:00,89.0,61.5,29.00,North,360,0.4,3.1,40,0.00,,,0.00,WSDL version 420,2013-08-01 14:47:00,
2013-08-01 09:52:00,89.7,62.2,29.00,WNW,284,2.2,4.5,40,0.00,,,0.00,WSDL version 420,2013-08-01 14:52:00,
2013-08-01 09:57:00,90.2,62.0,29.00,West,278,1.2,4.5,39,0.00,,,0.00,WSDL version 420,2013-08-01 14:57:00,
2013-08-01 10:04:00,90.3,61.3,29.00,SSW,200,0.4,2.9,38,0.00,,,0.00,WSDL version 420,2013-08-01 15:04:00,
2013-08-01 10:11:00,90.9,61.4,29.00,West,273,2.5,3.8,37,0.00,,,0.00,WSDL version 420,2013-08-01 15:11:00,
2013-08-01 10:20:00,91.2,60.2,29.00,WSW,245,1.8,4.3,35,0.00,,,0.00,WSDL version 420,2013-08-01 15:20:00,
2013-08-01 10:25:00,91.2,59.7,29.00,WSW,245,1.7,4.3,35,0.00,,,0.00,WSDL version 420,2013-08-01 15:25:00,
2013-08-01 10:30:00,91.4,59.8,29.00,WSW,242,2.0,3.4,34,0.00,,,0.00,WSDL version 420,2013-08-01 15:30:00,
2013-08-01 10:35:00,91.5,59.6,29.00,WSW,248,1.6,3.1,35,0.00,,,0.00,WSDL version 420,2013-08-01 15:35:00,
2013-08-01 10:40:00,92.2,60.1,29.00,SW,225,1.1,4.3,35,0.00,,,0.00,WSDL version 420,2013-08-01 15:40:00,
2013-08-01 10:54:00,93.1,59.4,29.00,West,268,1.6,3.1,32,0.00,,,0.00,WSDL version 420,2013-08-01 15:54:00,
2013-08-01 10:59:00,93.5,59.2,29.00,WSW,238,1.2,3.4,32,0.00,,,0.00,WSDL version 420,2013-08-01 15:59:00,
2013-08-01 11:10:00,94.2,59.9,29.00,SSW,208,1.4,3.1,32,0.00,,,0.00,WSDL version 420,2013-08-01 16:10:00,
2013-08-01 11:15:00,94.1,59.2,29.00,SW,233,1.3,2.9,32,0.00,,,0.00,WSDL version 420,2013-08-01 16:15:00,
2013-08-01 11:22:00,94.3,58.7,29.00,SW,215,1.5,3.1,31,0.00,,,0.00,WSDL version 420,2013-08-01 16:22:00,
2013-08-01 11:27:00,94.5,59.0,29.00,West,276,1.4,3.1,31,0.00,,,0.00,WSDL version 420,2013-08-01 16:27:00,
2013-08-01 11:32:00,94.9,58.7,29.00,SW,215,1.1,3.1,30,0.00,,,0.00,WSDL version 420,2013-08-01 16:32:00,
2013-08-01 11:44:00,95.2,58.4,29.00,WNW,283,1.3,3.4,29,0.00,,,0.00,WSDL version 420,2013-08-01 16:44:00,
2013-08-01 11:49:00,95.4,58.6,29.00,SW,233,1.2,3.4,29,0.00,,,0.00,WSDL version 420,2013-08-01 16:49:00,
2013-08-01 11:54:00,95.4,58.2,29.00,SSE,166,1.2,3.1,29,0.00,,,0.00,WSDL version 420,2013-08-01 16:54:00,
2013-08-01 12:05:00,96.1,59.3,29.00,SSW,197,1.5,3.4,29,0.00,,,0.00,WSDL version 420,2013-08-01 17:05:00,
2013-08-01 12:12:00,96.4,59.9,29.00,WSW,253,1.4,3.4,30,0.00,,,0.00,WSDL version 420,2013-08-01 17:12:00,
2013-08-01 12:17:00,96.9,59.4,29.00,ESE,113,1.1,4.3,29,0.00,,,0.00,WSDL version 420,2013-08-01 17:17:00,
2013-08-01 12:23:00,97.3,59.6,29.00,WSW,238,1.7,2.7,28,0.00,,,0.00,WSDL version 420,2013-08-01 17:23:00,
2013-08-01 12:28:00,98.0,59.5,28.97,NW,310,1.3,2.7,28,0.00,,,0.00,WSDL version 420,2013-08-01 17:28:00,
2013-08-01 12:33:00,98.4,59.2,28.97,WNW,298,2.5,4.3,27,0.00,,,0.00,WSDL version 420,2013-08-01 17:33:00,
2013-08-01 12:38:00,98.1,58.5,28.97,SE,135,1.3,4.3,27,0.00,,,0.00,WSDL version 420,2013-08-01 17:38:00,
2013-08-01 12:43:00,98.0,58.3,28.97,SSE,158,1.1,4.3,27,0.00,,,0.00,WSDL version 420,2013-08-01 17:43:00,
2013-08-01 12:48:00,97.9,58.5,28.97,SW,217,1.3,4.3,28,0.00,,,0.00,WSDL version 420,2013-08-01 17:48:00,
2013-08-01 12:53:00,98.1,58.8,28.97,NE,43,0.5,3.1,28,0.00,,,0.00,WSDL version 420,2013-08-01 17:53:00,
2013-08-01 12:58:00,98.7,58.9,28.97,NNE,23,0.6,2.9,27,0.00,,,0.00,WSDL version 420,2013-08-01 17:58:00,
2013-08-01 13:09:00,99.2,58.9,28.97,NNW,335,1.6,4.3,27,0.00,,,0.00,WSDL version 420,2013-08-01 18:09:00,
2013-08-01 13:14:00,99.8,59.5,28.97,South,180,1.1,4.0,26,0.00,,,0.00,WSDL version 420,2013-08-01 18:14:00,
2013-08-01 13:19:00,100.0,59.0,28.97,ENE,65,2.1,3.4,26,0.00,,,0.00,WSDL version 420,2013-08-01 18:19:00,
2013-08-01 13:24:00,100.0,58.9,28.97,North,349,0.9,3.4,26,0.00,,,0.00,WSDL version 420,2013-08-01 18:24:00,
2013-08-01 13:33:00,100.0,58.9,28.97,NNE,23,1.6,3.6,26,0.00,,,0.00,WSDL version 420,2013-08-01 18:33:00,
2013-08-01 13:40:00,99.9,58.9,28.97,SW,220,1.7,3.6,26,0.00,,,0.00,WSDL version 420,2013-08-01 18:40:00,
2013-08-01 13:45:00,99.1,58.3,28.97,SW,217,1.0,3.8,26,0.00,,,0.00,WSDL version 420,2013-08-01 18:45:00,
2013-08-01 13:50:00,98.7,57.9,28.97,NNE,18,1.2,3.8,26,0.00,,,0.00,WSDL version 420,2013-08-01 18:50:00,
2013-08-01 13:55:00,99.3,58.4,28.97,SSW,203,0.9,3.1,26,0.00,,,0.00,WSDL version 420,2013-08-01 18:55:00,
2013-08-01 14:03:00,99.5,58.5,28.94,North,8,0.5,3.4,26,0.00,,,0.00,WSDL version 420,2013-08-01 19:03:00,
2013-08-01 14:08:00,99.9,58.9,28.94,SW,228,1.4,3.1,26,0.00,,,0.00,WSDL version 420,2013-08-01 19:08:00,
2013-08-01 14:13:00,99.5,58.4,28.94,ESE,103,1.4,3.8,25,0.00,,,0.00,WSDL version 420,2013-08-01 19:13:00,
2013-08-01 14:18:00,99.2,58.2,28.94,NE,55,1.3,3.8,26,0.00,,,0.00,WSDL version 420,2013-08-01 19:18:00,
2013-08-01 14:25:00,99.1,57.6,28.94,SE,146,1.5,2.9,26,0.00,,,0.00,WSDL version 420,2013-08-01 19:25:00,
2013-08-01 14:30:00,98.7,57.4,28.94,WSW,240,2.3,3.1,25,0.00,,,0.00,WSDL version 420,2013-08-01 19:30:00,
2013-08-01 14:35:00,98.9,56.9,28.94,NE,39,2.4,3.6,25,0.00,,,0.00,WSDL version 420,2013-08-01 19:35:00,
2013-08-01 14:40:00,99.3,57.3,28.94,SW,218,2.0,4.0,25,0.00,,,0.00,WSDL version 420,2013-08-01 19:40:00,
2013-08-01 14:45:00,99.4,57.2,28.94,WSW,238,1.2,4.0,25,0.00,,,0.00,WSDL version 420,2013-08-01 19:45:00,
2013-08-01 14:50:00,99.3,57.3,28.94,South,185,1.6,3.1,25,0.00,,,0.00,WSDL version 420,2013-08-01 19:50:00,
2013-08-01 15:05:00,99.8,57.7,28.91,West,275,1.0,2.9,25,0.00,,,0.00,WSDL version 420,2013-08-01 20:05:00,
2013-08-01 15:10:00,100.1,58.0,28.91,ENE,68,1.2,3.4,25,0.00,,,0.00,WSDL version 420,2013-08-01 20:10:00,
2013-08-01 15:16:00,99.6,57.5,28.91,East,82,1.3,2.9,25,0.00,,,0.00,WSDL version 420,2013-08-01 20:16:00,
2013-08-01 15:25:00,100.0,57.9,28.91,SW,223,1.6,3.6,25,0.00,,,0.00,WSDL version 420,2013-08-01 20:25:00,
2013-08-01 15:30:00,100.3,58.1,28.91,NNE,28,2.6,4.3,25,0.00,,,0.00,WSDL version 420,2013-08-01 20:30:00,
2013-08-01 15:37:00,99.9,57.8,28.91,NE,43,1.0,4.3,25,0.00,,,0.00,WSDL version 420,2013-08-01 20:37:00,
2013-08-01 15:42:00,99.5,57.5,28.91,NE,53,1.9,4.0,25,0.00,,,0.00,WSDL version 420,2013-08-01 20:42:00,
2013-08-01 15:47:00,100.0,57.9,28.91,South,188,1.1,3.8,25,0.00,,,0.00,WSDL version 420,2013-08-01 20:47:00,
2013-08-01 15:52:00,99.9,57.8,28.91,SSE,149,1.1,3.8,25,0.00,,,0.00,WSDL version 420,2013-08-01 20:52:00,
2013-08-01 15:57:00,99.8,57.3,28.91,WSW,240,1.3,3.4,25,0.00,,,0.00,WSDL version 420,2013-08-01 20:57:00,
2013-08-01 16:02:00,99.9,57.5,28.91,East,98,1.8,2.9,24,0.00,,,0.00,WSDL version 420,2013-08-01 21:02:00,
2013-08-01 16:07:00,99.7,56.9,28.91,WSW,248,2.1,4.0,25,0.00,,,0.00,WSDL version 420,2013-08-01 21:07:00,
2013-08-01 16:12:00,100.0,57.4,28.91,NNE,30,2.5,4.0,24,0.00,,,0.00,WSDL version 420,2013-08-01 21:12:00,
2013-08-01 16:17:00,99.8,56.6,28.91,NE,40,2.4,4.0,24,0.00,,,0.00,WSDL version 420,2013-08-01 21:17:00,
2013-08-01 16:22:00,99.2,55.7,28.91,NNE,15,2.0,4.0,24,0.00,,,0.00,WSDL version 420,2013-08-01 21:22:00,
2013-08-01 16:27:00,99.0,55.6,28.91,NNE,28,1.6,4.3,24,0.00,,,0.00,WSDL version 420,2013-08-01 21:27:00,
2013-08-01 16:32:00,99.3,56.2,28.91,South,183,1.9,4.3,24,0.00,,,0.00,WSDL version 420,2013-08-01 21:32:00,
2013-08-01 16:37:00,99.4,55.7,28.91,WNW,290,2.4,4.3,24,0.00,,,0.00,WSDL version 420,2013-08-01 21:37:00,
2013-08-01 16:42:00,99.5,56.3,28.91,NE,48,2.2,4.0,24,0.00,,,0.00,WSDL version 420,2013-08-01 21:42:00,
2013-08-01 16:47:00,99.4,55.7,28.91,NNE,33,2.8,4.3,24,0.00,,,0.00,WSDL version 420,2013-08-01 21:47:00,
2013-08-01 16:52:00,99.4,55.6,28.91,West,260,1.3,4.3,24,0.00,,,0.00,WSDL version 420,2013-08-01 21:52:00,
2013-08-01 16:57:00,99.4,55.7,28.91,NE,55,2.8,5.4,24,0.00,,,0.00,WSDL version 420,2013-08-01 21:57:00,
2013-08-01 17:02:00,99.3,55.2,28.88,SW,218,1.4,5.4,23,0.00,,,0.00,WSDL version 420,2013-08-01 22:02:00,
2013-08-01 17:07:00,99.3,55.7,28.88,NE,42,2.8,4.3,23,0.00,,,0.00,WSDL version 420,2013-08-01 22:07:00,
2013-08-01 17:12:00,99.3,55.0,28.88,SSE,168,1.5,4.3,23,0.00,,,0.00,WSDL version 420,2013-08-01 22:12:00,
2013-08-01 17:19:00,99.1,55.7,28.88,NNE,28,1.0,3.8,24,0.00,,,0.00,WSDL version 420,2013-08-01 22:19:00,
2013-08-01 17:24:00,99.1,56.0,28.88,SW,220,0.9,3.4,24,0.00,,,0.00,WSDL version 420,2013-08-01 22:24:00,
2013-08-01 17:29:00,99.0,55.4,28.88,NE,45,1.1,2.5,23,0.00,,,0.00,WSDL version 420,2013-08-01 22:29:00,
2013-08-01 17:34:00,98.9,55.5,28.88,SE,140,1.5,2.9,24,0.00,,,0.00,WSDL version 420,2013-08-01 22:34:00,
2013-08-01 17:41:00,98.9,55.8,28.88,NNE,20,2.3,3.8,24,0.00,,,0.00,WSDL version 420,2013-08-01 22:41:00,
2013-08-01 17:46:00,98.8,55.7,28.88,NE,40,1.3,3.8,24,0.00,,,0.00,WSDL version 420,2013-08-01 22:46:00,
2013-08-01 17:52:00,98.5,55.5,28.88,East,90,0.9,3.8,24,0.00,,,0.00,WSDL version 420,2013-08-01 22:52:00,
2013-08-01 17:58:00,98.4,55.6,28.88,NNE,31,2.3,3.8,24,0.00,,,0.00,WSDL version 420,2013-08-01 22:58:00,
2013-08-01 18:03:00,98.4,55.4,28.88,NE,35,1.8,4.9,24,0.00,,,0.00,WSDL version 420,2013-08-01 23:03:00,
2013-08-01 18:08:00,98.2,55.3,28.88,SW,222,1.6,4.9,24,0.00,,,0.00,WSDL version 420,2013-08-01 23:08:00,
2013-08-01 18:13:00,98.0,55.1,28.88,WSW,248,1.2,3.4,24,0.00,,,0.00,WSDL version 420,2013-08-01 23:13:00,
2013-08-01 18:17:00,97.9,55.0,28.88,SW,214,1.5,2.9,24,0.00,,,0.00,WSDL version 420,2013-08-01 23:17:00,
2013-08-01 18:22:00,97.9,55.0,28.88,ENE,73,2.0,4.0,24,0.00,,,0.00,WSDL version 420,2013-08-01 23:22:00,
2013-08-01 18:28:00,97.9,55.3,28.88,ENE,70,1.0,4.0,24,0.00,,,0.00,WSDL version 420,2013-08-01 23:28:00,
2013-08-01 18:33:00,97.6,55.0,28.88,SSE,148,1.0,4.3,24,0.00,,,0.00,WSDL version 420,2013-08-01 23:33:00,
2013-08-01 18:38:00,97.4,55.3,28.88,NW,318,1.1,4.3,25,0.00,,,0.00,WSDL version 420,2013-08-01 23:38:00,
2013-08-01 18:42:00,97.3,55.6,28.88,NNE,28,2.3,4.3,25,0.00,,,0.00,WSDL version 420,2013-08-01 23:42:00,
2013-08-01 18:48:00,97.1,55.5,28.88,NNW,343,1.3,4.3,25,0.00,,,0.00,WSDL version 420,2013-08-01 23:48:00,
2013-08-01 18:54:00,97.0,55.3,28.88,SSE,163,0.0,3.4,25,0.00,,,0.00,WSDL version 420,2013-08-01 23:54:00,
2013-08-01 18:59:00,96.8,55.8,28.88,SSW,194,0.7,2.5,25,0.00,,,0.00,WSDL version 420,2013-08-01 23:59:00,
2013-08-01 19:04:00,96.7,56.0,28.88,ESE,120,0.4,2.7,26,0.00,,,0.00,WSDL version 420,2013-08-02 00:04:00,
2013-08-01 19:09:00,96.4,56.0,28.88,NNW,338,0.0,2.7,26,0.00,,,0.00,WSDL version 420,2013-08-02 00:09:00,
2013-08-01 19:16:00,96.1,55.7,28.85,East,96,0.4,1.6,26,0.00,,,0.00,WSDL version 420,2013-08-02 00:16:00,
2013-08-01 19:21:00,95.9,55.5,28.85,NNW,328,0.9,1.6,26,0.00,,,0.00,WSDL version 420,2013-08-02 00:21:00,
2013-08-01 19:26:00,95.4,55.1,28.85,NE,56,0.0,1.6,26,0.00,,,0.00,WSDL version 420,2013-08-02 00:26:00,
2013-08-01 19:31:00,95.1,54.8,28.88,North,357,0.0,1.6,26,0.00,,,0.00,WSDL version 420,2013-08-02 00:31:00,
2013-08-01 19:36:00,94.9,55.3,28.88,North,11,0.6,2.5,27,0.00,,,0.00,WSDL version 420,2013-08-02 00:36:00,
2013-08-01 19:41:00,94.7,55.5,28.88,NE,45,0.0,2.5,27,0.00,,,0.00,WSDL version 420,2013-08-02 00:41:00,
2013-08-01 19:46:00,94.3,55.3,28.88,NW,315,0.0,1.3,27,0.00,,,0.00,WSDL version 420,2013-08-02 00:46:00,
2013-08-01 19:51:00,94.1,55.0,28.88,NW,315,0.0,1.3,27,0.00,,,0.00,WSDL version 420,2013-08-02 00:51:00,
2013-08-01 19:56:00,93.8,54.8,28.88,NW,315,0.0,0.0,27,0.00,,,0.00,WSDL version 420,2013-08-02 00:56:00,
2013-08-01 20:01:00,93.4,54.5,28.88,NW,315,0.0,0.0,27,0.00,,,0.00,WSDL version 420,2013-08-02 01:01:00,
2013-08-01 20:06:00,93.1,54.2,28.88,NW,315,0.0,0.0,27,0.00,,,0.00,WSDL version 420,2013-08-02 01:06:00,
2013-08-01 20:13:00,92.6,54.7,28.88,NW,315,0.0,0.0,28,0.00,,,0.00,WSDL version 420,2013-08-02 01:13:00,
2013-08-01 20:18:00,92.2,54.4,28.88,NW,315,0.0,0.0,28,0.00,,,0.00,WSDL version 420,2013-08-02 01:18:00,
2013-08-01 20:23:00,91.8,54.1,28.88,NW,315,0.0,0.0,28,0.00,,,0.00,WSDL version 420,2013-08-02 01:23:00,
2013-08-01 20:30:00,91.1,53.7,28.88,NW,315,0.0,0.0,29,0.00,,,0.00,WSDL version 420,2013-08-02 01:30:00,
2013-08-01 20:35:00,90.7,54.1,28.88,NW,315,0.0,0.0,29,0.00,,,0.00,WSDL version 420,2013-08-02 01:35:00,
2013-08-01 20:42:00,89.8,53.5,28.88,NW,315,0.0,0.0,30,0.00,,,0.00,WSDL version 420,2013-08-02 01:42:00,
2013-08-01 20:47:00,89.3,53.8,28.88,NW,315,0.0,0.0,30,0.00,,,0.00,WSDL version 420,2013-08-02 01:47:00,
2013-08-01 20:52:00,88.9,53.5,28.88,NW,315,0.0,0.0,30,0.00,,,0.00,WSDL version 420,2013-08-02 01:52:00,
2013-08-01 20:57:00,88.6,54.1,28.88,NW,315,0.0,0.0,31,0.00,,,0.00,WSDL version 420,2013-08-02 01:57:00,
2013-08-01 21:02:00,88.2,53.7,28.91,NW,315,0.0,0.0,31,0.00,,,0.00,WSDL version 420,2013-08-02 02:02:00,
2013-08-01 21:07:00,87.8,54.0,28.91,NW,315,0.0,0.0,32,0.00,,,0.00,WSDL version 420,2013-08-02 02:07:00,
2013-08-01 21:16:00,87.2,54.5,28.88,NW,315,0.0,0.0,33,0.00,,,0.00,WSDL version 420,2013-08-02 02:16:00,
2013-08-01 21:21:00,87.0,54.4,28.88,NW,315,0.0,0.0,33,0.00,,,0.00,WSDL version 420,2013-08-02 02:21:00,
2013-08-01 21:29:00,86.4,54.7,28.88,NW,315,0.0,0.0,34,0.00,,,0.00,WSDL version 420,2013-08-02 02:29:00,
2013-08-01 21:34:00,86.1,54.5,28.88,NW,315,0.0,0.0,34,0.00,,,0.00,WSDL version 420,2013-08-02 02:34:00,
2013-08-01 21:39:00,85.8,54.9,28.88,NW,315,0.0,0.0,35,0.00,,,0.00,WSDL version 420,2013-08-02 02:39:00,
2013-08-01 21:44:00,85.5,54.8,28.91,NW,315,0.0,0.0,35,0.00,,,0.00,WSDL version 420,2013-08-02 02:44:00,
2013-08-01 21:49:00,85.2,55.0,28.91,NW,315,0.0,0.0,36,0.00,,,0.00,WSDL version 420,2013-08-02 02:49:00,
2013-08-01 21:54:00,84.9,55.6,28.91,NW,315,0.0,0.0,37,0.00,,,0.00,WSDL version 420,2013-08-02 02:54:00,
2013-08-01 22:01:00,84.6,56.0,28.91,NW,315,0.0,0.0,38,0.00,,,0.00,WSDL version 420,2013-08-02 03:01:00,
2013-08-01 22:06:00,84.4,56.0,28.91,NW,315,0.0,0.0,38,0.00,,,0.00,WSDL version 420,2013-08-02 03:06:00,
2013-08-01 22:11:00,84.1,56.1,28.91,NW,315,0.0,0.0,39,0.00,,,0.00,WSDL version 420,2013-08-02 03:11:00,
2013-08-01 22:16:00,83.8,56.2,28.91,NW,315,0.0,0.0,39,0.00,,,0.00,WSDL version 420,2013-08-02 03:16:00,
2013-08-01 22:21:00,83.4,56.3,28.91,NW,315,0.0,0.0,40,0.00,,,0.00,WSDL version 420,2013-08-02 03:21:00,
2013-08-01 22:28:00,83.2,56.1,28.91,NW,315,0.0,0.0,40,0.00,,,0.00,WSDL version 420,2013-08-02 03:28:00,
2013-08-01 22:33:00,83.0,56.2,28.91,NW,315,0.0,0.0,40,0.00,,,0.00,WSDL version 420,2013-08-02 03:33:00,
2013-08-01 22:38:00,82.8,56.0,28.91,NW,315,0.0,0.0,40,0.00,,,0.00,WSDL version 420,2013-08-02 03:38:00,
2013-08-01 22:45:00,82.3,56.0,28.91,NW,315,0.0,0.0,41,0.00,,,0.00,WSDL version 420,2013-08-02 03:45:00,
2013-08-01 22:52:00,82.0,55.8,28.91,NW,315,0.0,0.0,40,0.00,,,0.00,WSDL version 420,2013-08-02 03:52:00,
2013-08-01 22:57:00,82.2,55.6,28.91,NW,315,0.0,0.0,40,0.00,,,0.00,WSDL version 420,2013-08-02 03:57:00,
2013-08-01 23:02:00,82.6,55.8,28.91,NW,315,0.0,0.0,40,0.00,,,0.00,WSDL version 420,2013-08-02 04:02:00,
2013-08-01 23:07:00,82.8,56.0,28.91,NW,315,0.0,0.0,40,0.00,,,0.00,WSDL version 420,2013-08-02 04:07:00,
2013-08-01 23:12:00,82.6,55.8,28.91,NW,315,0.0,0.0,40,0.00,,,0.00,WSDL version 420,2013-08-02 04:12:00,
2013-08-01 23:17:00,82.6,55.9,28.91,NW,315,0.0,0.0,40,0.00,,,0.00,WSDL version 420,2013-08-02 04:17:00,
2013-08-01 23:22:00,83.0,56.2,28.91,NW,315,0.0,0.0,40,0.00,,,0.00,WSDL version 420,2013-08-02 04:22:00,
2013-08-01 23:27:00,83.1,56.3,28.91,NW,315,0.0,0.0,40,0.00,,,0.00,WSDL version 420,2013-08-02 04:27:00,
2013-08-01 23:32:00,83.0,56.2,28.91,NW,315,0.0,0.0,40,0.00,,,0.00,WSDL version 420,2013-08-02 04:32:00,
2013-08-01 23:37:00,83.1,56.3,28.91,NW,315,0.0,0.0,40,0.00,,,0.00,WSDL version 420,2013-08-02 04:37:00,
2013-08-01 23:42:00,83.3,56.5,28.91,NW,315,0.0,0.0,40,0.00,,,0.00,WSDL version 420,2013-08-02 04:42:00,
2013-08-01 23:47:00,83.3,56.5,28.91,NW,315,0.0,0.0,40,0.00,,,0.00,WSDL version 420,2013-08-02 04:47:00,
2013-08-01 23:52:00,83.3,56.5,28.91,NW,315,0.0,0.0,40,0.00,,,0.00,WSDL version 420,2013-08-02 04:52:00,
2013-08-01 23:57:00,83.3,56.5,28.91,South,188,0.0,1.1,40,0.00,,,0.00,WSDL version 420,2013-08-02 04:57:00,